Aérodrome :
LOGIN :

S'inscrire | Disclaimer

   EN    FR    IT 

 










Légende :    VFR   VFR Marginal   IFR   IFR Intensif   IFR Très Intensif
Visi : 
Plafond : 
>= 8 km
>= 3000ft
5 à 8 km
1000 à 3000 ft
1500m à 5 km
500 à 1000 ft
800 à 1500m
200 à 500 ft
< 800m
< 200 ft
Symboles :   Orages  Brouillard  Fortes neiges  Fortes précipitations  Vent > 20 kt
SIGMETs :   Divers  Orages  Givrage  Turbulence  Onde Orograph.  Cendres Volcan.







- Altitude de l'aérodrome : 1585 ft
- Code IATA : SIR


LSGS - Sion

DERNIER METAR :
  • 211520Z 26012KT 9999 FEW030 SCT070 BKN100 22/13 Q1014

METARs EXPIRÉS :
  • 211450Z 25013KT 9999 FEW030 SCT080 BKN110 22/13 Q1013
  • 211420Z 23005KT 190V290 9999 FEW025 SCT080 BKN110 23/14 Q1013
  • 211350Z 24005KT 190V290 9999 FEW030 SCT080 BKN110 23/14 Q1014
  • 211320Z AUTO 28005KT 170V340 CAVOK 22/14 Q1014
  • 211250Z AUTO 25008KT CAVOK 22/14 Q1014

TAF TAF LSGS
Valide du 21 à 15h jusqu'au 22 à 00h UTC


211425Z 2115/2124 28010KT 9999 FEW040 SCT080 BKN120
BECMG 2119/2121 VRB04KT
TEMPO 2116/2121 SHRA FEW050TCU
Pas de NOTAMs connus pour ce terrain.



MET'MAP, la Météo Aéronautique d'un coup d'oeil ! - Copyright ORBIFLY Décembre 2007 - Disclaimer

ORBIFLY MET'MAP TEAM :

Programmation & Développement : Alexandra Zaïnal
Conception & Développement : Baudouin d'Aumeries
Co-Programmation & Développement : Marc-Olivier Méhu
Soutien technique & logistique : Manuel Goepfert

Contact : metmap@orbifly.com




SOURCES & CREDITS :

   NOAA